GS234 EBCI-EDXW

Flight info

Callsign GS234
Flight time 1h 23m
Altitude 34000
Route LNO N852 VELED/N0343F350 DCT JUIST N873 IQITA
Aircraft P180/L-SBDFGM3RWXY/LB1

Departure

Time 2026-04-29 10:25
Airport Brussels South Charleroi Airport (EBCI)

Arrival

Time 2026-04-29 11:48
Airport Westerland Sylt Airport (EDXW)
Time Latitude Longitude Altitude Speed Heading
2026-04-29 10:08 50.45881 4.45514 607 ft 0 kts 245°
2026-04-29 10:20 50.45881 4.45513 607 ft 0 kts 246°
2026-04-29 10:20 50.45879 4.45507 607 ft 1 kts 248°
2026-04-29 10:21 50.45875 4.45491 611 ft 2 kts 249°
2026-04-29 10:21 50.45885 4.45469 607 ft 4 kts 343°
2026-04-29 10:21 50.45907 4.45434 606 ft 5 kts 267°
2026-04-29 10:21 50.45892 4.45370 619 ft 7 kts 247°
2026-04-29 10:22 50.45871 4.45296 607 ft 8 kts 248°
2026-04-29 10:22 50.45843 4.45207 611 ft 10 kts 248°
2026-04-29 10:22 50.45813 4.45097 612 ft 12 kts 246°
2026-04-29 10:22 50.45753 4.44894 607 ft 26 kts 245°
2026-04-29 10:23 50.45674 4.44619 608 ft 30 kts 245°
2026-04-29 10:23 50.45588 4.44325 613 ft 29 kts 245°
2026-04-29 10:23 50.45501 4.44030 614 ft 31 kts 245°
2026-04-29 10:23 50.45439 4.43786 610 ft 10 kts 278°
2026-04-29 10:24 50.45440 4.43776 607 ft 0 kts 280°
2026-04-29 10:24 50.45442 4.43763 607 ft 4 kts 284°
2026-04-29 10:24 50.45472 4.43721 608 ft 8 kts 334°
2026-04-29 10:24 50.45533 4.43739 619 ft 12 kts 60°
2026-04-29 10:25 50.45581 4.43897 611 ft 39 kts 64°
2026-04-29 10:25 50.45838 4.44756 675 ft 122 kts 64°
2026-04-29 10:25 50.46266 4.46125 1176 ft 159 kts 64°
2026-04-29 10:25 50.46945 4.47800 1714 ft 196 kts 55°
2026-04-29 10:26 50.47850 4.49470 2381 ft 204 kts 54°
2026-04-29 10:26 50.48826 4.51152 2999 ft 212 kts 50°
2026-04-29 10:26 50.49913 4.52734 3603 ft 211 kts 47°
2026-04-29 10:26 50.50929 4.54308 3999 ft 203 kts 57°
2026-04-29 10:27 50.52342 4.58223 4278 ft 211 kts 57°
2026-04-29 10:27 50.53265 4.60020 4497 ft 211 kts 56°
2026-04-29 10:27 50.54177 4.61849 4666 ft 214 kts 57°
2026-04-29 10:28 50.55092 4.63716 4871 ft 215 kts 56°
2026-04-29 10:28 50.56014 4.65579 5078 ft 215 kts 56°
2026-04-29 10:28 50.56926 4.67447 5270 ft 215 kts 58°
2026-04-29 10:28 50.57584 4.69519 5436 ft 214 kts 70°
2026-04-29 10:29 50.58344 4.71525 5670 ft 214 kts 56°
2026-04-29 10:29 50.59328 4.73245 6090 ft 203 kts 51°
2026-04-29 10:29 50.60318 4.74670 6777 ft 189 kts 35°
2026-04-29 10:29 50.61572 4.75225 7426 ft 178 kts 24°
2026-04-29 10:30 50.62252 4.75841 7802 ft 165 kts 50°
2026-04-29 10:30 50.62714 4.77406 8282 ft 158 kts 77°
2026-04-29 10:30 50.63478 4.79335 8915 ft 160 kts 50°
2026-04-29 10:30 50.64228 4.80634 9401 ft 159 kts 52°
2026-04-29 10:31 50.64717 4.81487 9731 ft 157 kts 51°
2026-04-29 10:31 50.65451 4.82740 10232 ft 154 kts 51°
2026-04-29 10:31 50.66169 4.83976 10672 ft 151 kts 52°
2026-04-29 10:31 50.66883 4.85188 11125 ft 150 kts 44°
2026-04-29 10:32 50.67824 4.85904 11591 ft 151 kts 25°
2026-04-29 10:32 50.68826 4.86491 12082 ft 158 kts 27°
2026-04-29 10:32 50.69891 4.87124 12577 ft 168 kts 26°
2026-04-29 10:32 50.71008 4.87818 13086 ft 177 kts 26°
2026-04-29 10:33 50.72153 4.88562 13592 ft 184 kts 27°
2026-04-29 10:33 50.73357 4.89340 14113 ft 189 kts 27°
2026-04-29 10:33 50.74584 4.90129 14577 ft 192 kts 26°
2026-04-29 10:33 50.75833 4.90940 15039 ft 195 kts 26°
2026-04-29 10:34 50.77098 4.91774 15505 ft 198 kts 27°
2026-04-29 10:34 50.78369 4.92610 15985 ft 199 kts 27°
2026-04-29 10:34 50.79654 4.93440 16462 ft 199 kts 26°
2026-04-29 10:34 50.80942 4.94263 16948 ft 199 kts 26°
2026-04-29 10:35 50.82208 4.95075 17428 ft 198 kts 26°
2026-04-29 10:35 50.83483 4.95887 17931 ft 196 kts 26°
2026-04-29 10:35 50.84744 4.96689 18435 ft 194 kts 26°
2026-04-29 10:35 50.85994 4.97477 18891 ft 192 kts 26°
2026-04-29 10:36 50.87229 4.98248 19337 ft 189 kts 26°
2026-04-29 10:36 50.88445 4.98993 19787 ft 186 kts 26°
2026-04-29 10:36 50.89633 4.99714 20240 ft 183 kts 26°
2026-04-29 10:36 50.90820 5.00418 20695 ft 180 kts 26°
2026-04-29 10:37 50.91983 5.01095 21162 ft 176 kts 27°
2026-04-29 10:37 50.93129 5.01751 21629 ft 173 kts 26°
2026-04-29 10:37 50.94255 5.02379 22118 ft 170 kts 27°
2026-04-29 10:37 50.95363 5.02988 22617 ft 166 kts 27°
2026-04-29 10:38 50.96449 5.03565 23102 ft 163 kts 26°
2026-04-29 10:38 50.97512 5.04118 23597 ft 158 kts 26°
2026-04-29 10:38 50.98535 5.04631 24070 ft 153 kts 26°
2026-04-29 10:38 50.99562 5.05137 24444 ft 157 kts 27°
2026-04-29 10:39 51.00614 5.05660 24807 ft 159 kts 26°
2026-04-29 10:39 51.01677 5.06182 25164 ft 160 kts 27°
2026-04-29 10:39 51.02750 5.06711 25533 ft 162 kts 27°
2026-04-29 10:39 51.03829 5.07237 25900 ft 163 kts 27°
2026-04-29 10:40 51.04924 5.07771 26285 ft 165 kts 26°
2026-04-29 10:40 51.06028 5.08309 26671 ft 167 kts 27°
2026-04-29 10:40 51.07130 5.08845 27056 ft 169 kts 26°
2026-04-29 10:40 51.08262 5.09393 27451 ft 171 kts 26°
2026-04-29 10:41 51.09405 5.09947 27854 ft 172 kts 26°
2026-04-29 10:41 51.10565 5.10506 28262 ft 174 kts 27°
2026-04-29 10:41 51.11720 5.11062 28669 ft 176 kts 27°
2026-04-29 10:41 51.12901 5.11632 29087 ft 178 kts 27°
2026-04-29 10:42 51.14095 5.12206 29506 ft 180 kts 27°
2026-04-29 10:42 51.15303 5.12787 29942 ft 182 kts 26°
2026-04-29 10:42 51.16522 5.13369 30376 ft 184 kts 26°
2026-04-29 10:42 51.17756 5.13958 30746 ft 185 kts 26°
2026-04-29 10:43 51.18996 5.14557 31114 ft 187 kts 26°
2026-04-29 10:43 51.20230 5.15163 31482 ft 188 kts 26°
2026-04-29 10:43 51.21474 5.15781 31865 ft 186 kts 26°
2026-04-29 10:43 51.22701 5.16396 32243 ft 183 kts 26°
2026-04-29 10:44 51.23912 5.17006 32627 ft 181 kts 26°
2026-04-29 10:44 51.25102 5.17606 33014 ft 177 kts 26°
2026-04-29 10:44 51.26215 5.18337 33406 ft 167 kts 37°
2026-04-29 10:44 51.27187 5.19300 33795 ft 162 kts 39°
2026-04-29 10:45 51.28121 5.20249 34172 ft 157 kts 39°
2026-04-29 10:45 51.29044 5.21197 34283 ft 166 kts 39°
2026-04-29 10:45 51.30045 5.22247 34298 ft 179 kts 39°
2026-04-29 10:45 51.31120 5.23400 34304 ft 192 kts 39°
2026-04-29 10:46 51.32264 5.24650 34312 ft 205 kts 39°
2026-04-29 10:46 51.33474 5.25981 34349 ft 217 kts 39°
2026-04-29 10:46 51.34742 5.27406 34333 ft 228 kts 39°
2026-04-29 10:46 51.36057 5.28915 34332 ft 238 kts 39°
2026-04-29 10:47 51.37408 5.30527 34330 ft 246 kts 42°
2026-04-29 10:47 51.38743 5.32334 34331 ft 254 kts 46°
2026-04-29 10:47 51.39988 5.34400 34331 ft 261 kts 49°
2026-04-29 10:47 51.41204 5.36585 34329 ft 269 kts 50°
2026-04-29 10:48 51.42576 5.38702 34328 ft 278 kts 41°
2026-04-29 10:48 51.44230 5.40430 34328 ft 288 kts 31°
2026-04-29 10:48 51.46112 5.41686 34330 ft 298 kts 24°
2026-04-29 10:49 51.49999 5.44117 34391 ft 303 kts 28°
2026-04-29 10:49 51.51903 5.45481 34750 ft 296 kts 27°
2026-04-29 10:49 51.53775 5.46757 35103 ft 289 kts 27°
2026-04-29 10:49 51.55613 5.48005 35315 ft 287 kts 27°
2026-04-29 10:50 51.57472 5.49273 35306 ft 292 kts 27°
2026-04-29 10:50 51.59359 5.50564 35313 ft 296 kts 27°
2026-04-29 10:50 51.61276 5.51872 35314 ft 301 kts 27°
2026-04-29 10:51 51.65156 5.54528 35321 ft 308 kts 27°
2026-04-29 10:51 51.69136 5.57256 35328 ft 314 kts 27°
2026-04-29 10:52 51.73196 5.60055 35339 ft 319 kts 27°
2026-04-29 10:52 51.77283 5.62863 35355 ft 323 kts 27°
2026-04-29 10:53 51.81446 5.65744 35354 ft 327 kts 27°
2026-04-29 10:53 51.85647 5.68648 35354 ft 330 kts 27°
2026-04-29 10:54 51.89889 5.71591 35358 ft 332 kts 27°
2026-04-29 10:54 51.94152 5.74553 35352 ft 334 kts 27°
2026-04-29 10:55 51.98436 5.77537 35361 ft 335 kts 27°
2026-04-29 10:55 52.02695 5.80504 35364 ft 336 kts 27°
2026-04-29 10:56 52.06996 5.83518 35381 ft 336 kts 27°
2026-04-29 10:56 52.11276 5.86502 35381 ft 336 kts 27°
2026-04-29 10:57 52.15569 5.89540 35372 ft 336 kts 27°
2026-04-29 10:57 52.19871 5.92545 35380 ft 336 kts 27°
2026-04-29 10:58 52.24121 5.95554 35385 ft 336 kts 27°
2026-04-29 10:58 52.28445 5.98610 35387 ft 334 kts 27°
2026-04-29 10:59 52.32690 6.01603 35394 ft 334 kts 27°
2026-04-29 10:59 52.36951 6.04631 35394 ft 334 kts 27°
2026-04-29 11:00 52.41213 6.07666 35398 ft 333 kts 27°
2026-04-29 11:00 52.45463 6.10694 35405 ft 333 kts 27°
2026-04-29 11:01 52.49680 6.13706 35405 ft 332 kts 27°
2026-04-29 11:01 52.53927 6.16749 35413 ft 332 kts 27°
2026-04-29 11:02 52.58170 6.19787 35412 ft 332 kts 27°
2026-04-29 11:02 52.62407 6.22836 35402 ft 332 kts 28°
2026-04-29 11:03 52.66607 6.25859 35402 ft 331 kts 28°
2026-04-29 11:03 52.70834 6.28874 35419 ft 330 kts 27°
2026-04-29 11:04 52.75033 6.31964 35425 ft 330 kts 28°
2026-04-29 11:04 52.79221 6.34977 35432 ft 330 kts 28°
2026-04-29 11:05 52.83421 6.38025 35431 ft 329 kts 28°
2026-04-29 11:05 52.87619 6.41092 35426 ft 329 kts 28°
2026-04-29 11:06 52.91810 6.44143 35433 ft 328 kts 28°
2026-04-29 11:06 52.95971 6.47189 35432 ft 328 kts 28°
2026-04-29 11:07 53.00176 6.50268 35223 ft 334 kts 28°
2026-04-29 11:07 53.02310 6.51835 35079 ft 337 kts 28°
2026-04-29 11:07 53.04461 6.53414 34837 ft 336 kts 28°
2026-04-29 11:07 53.06570 6.54963 34532 ft 327 kts 28°
2026-04-29 11:08 53.08599 6.56454 34161 ft 319 kts 28°
2026-04-29 11:08 53.10616 6.57943 33799 ft 313 kts 29°
2026-04-29 11:08 53.12598 6.59404 33439 ft 308 kts 29°
2026-04-29 11:08 53.14546 6.60843 33085 ft 304 kts 29°
2026-04-29 11:09 53.16464 6.62263 32739 ft 300 kts 29°
2026-04-29 11:09 53.18371 6.63672 32395 ft 297 kts 29°
2026-04-29 11:09 53.20254 6.65070 32057 ft 294 kts 29°
2026-04-29 11:09 53.22098 6.66441 31753 ft 292 kts 28°
2026-04-29 11:10 53.23956 6.67817 31338 ft 292 kts 28°
2026-04-29 11:10 53.25822 6.69202 30847 ft 295 kts 28°
2026-04-29 11:10 53.27704 6.70604 30339 ft 297 kts 28°
2026-04-29 11:10 53.29598 6.72010 29770 ft 298 kts 28°
2026-04-29 11:11 53.31495 6.73421 29223 ft 299 kts 28°
2026-04-29 11:11 53.33399 6.74841 28677 ft 299 kts 28°
2026-04-29 11:11 53.35299 6.76256 28143 ft 298 kts 28°
2026-04-29 11:11 53.37169 6.77656 27640 ft 297 kts 28°
2026-04-29 11:12 53.39061 6.79070 27124 ft 296 kts 28°
2026-04-29 11:12 53.40938 6.80472 26617 ft 295 kts 28°
2026-04-29 11:12 53.42808 6.81874 26117 ft 293 kts 28°
2026-04-29 11:12 53.44668 6.83273 25628 ft 292 kts 28°
2026-04-29 11:13 53.46522 6.84658 25146 ft 290 kts 27°
2026-04-29 11:13 53.48338 6.86025 24678 ft 289 kts 28°
2026-04-29 11:13 53.50173 6.87407 24217 ft 287 kts 27°
2026-04-29 11:13 53.51999 6.88778 23693 ft 286 kts 27°
2026-04-29 11:14 53.53807 6.90145 23151 ft 285 kts 27°
2026-04-29 11:14 53.55613 6.91508 22581 ft 283 kts 28°
2026-04-29 11:14 53.57224 6.93327 22053 ft 279 kts 43°
2026-04-29 11:14 53.58676 6.95492 21553 ft 278 kts 41°
2026-04-29 11:15 53.60149 6.97489 21466 ft 264 kts 40°
2026-04-29 11:15 53.61505 6.99390 21461 ft 250 kts 41°
2026-04-29 11:15 53.62793 7.01244 21452 ft 238 kts 41°
2026-04-29 11:15 53.64034 7.03011 21341 ft 232 kts 41°
2026-04-29 11:16 53.65296 7.04807 20831 ft 242 kts 41°
2026-04-29 11:16 53.66601 7.06658 20339 ft 249 kts 41°
2026-04-29 11:16 53.67486 7.07918 20017 ft 252 kts 41°
2026-04-29 11:16 53.68838 7.09846 19540 ft 256 kts 41°
2026-04-29 11:17 53.70207 7.11794 19069 ft 259 kts 41°
2026-04-29 11:17 53.71587 7.13771 18581 ft 261 kts 41°
2026-04-29 11:17 53.72982 7.15760 18047 ft 262 kts 41°
2026-04-29 11:17 53.74376 7.17752 17528 ft 263 kts 41°
2026-04-29 11:18 53.75772 7.19758 17007 ft 263 kts 41°
2026-04-29 11:18 53.77146 7.21741 16503 ft 263 kts 41°
2026-04-29 11:18 53.78534 7.23757 16000 ft 262 kts 41°
2026-04-29 11:18 53.79939 7.25782 15526 ft 261 kts 41°
2026-04-29 11:19 53.81263 7.27702 15475 ft 246 kts 41°
2026-04-29 11:19 53.82529 7.29539 15477 ft 233 kts 41°
2026-04-29 11:19 53.83733 7.31279 15462 ft 222 kts 41°
2026-04-29 11:19 53.84882 7.32951 15470 ft 214 kts 41°
2026-04-29 11:20 53.85994 7.34558 15483 ft 206 kts 40°
2026-04-29 11:20 53.87236 7.35691 15474 ft 203 kts 21°
2026-04-29 11:20 53.88553 7.36474 15460 ft 198 kts 24°
2026-04-29 11:20 53.89828 7.37315 15470 ft 194 kts 24°
2026-04-29 11:21 53.91105 7.38116 15464 ft 201 kts 24°
2026-04-29 11:21 53.92450 7.38984 15487 ft 215 kts 24°
2026-04-29 11:21 53.93885 7.39900 15484 ft 226 kts 23°
2026-04-29 11:21 53.95395 7.40861 15493 ft 239 kts 22°
2026-04-29 11:22 53.97084 7.41512 15491 ft 258 kts 12°
2026-04-29 11:22 53.98898 7.42010 15493 ft 270 kts 13°
2026-04-29 11:22 54.00777 7.42613 15491 ft 279 kts 14°
2026-04-29 11:22 54.02685 7.43231 15497 ft 285 kts 13°
2026-04-29 11:23 54.04657 7.43845 15495 ft 290 kts 14°
2026-04-29 11:23 54.06656 7.44489 15496 ft 293 kts 14°
2026-04-29 11:23 54.08674 7.45132 15496 ft 296 kts 13°
2026-04-29 11:23 54.10708 7.45761 15495 ft 298 kts 13°
2026-04-29 11:24 54.12718 7.46402 15495 ft 289 kts 14°
2026-04-29 11:24 54.14663 7.47027 15492 ft 281 kts 14°
2026-04-29 11:24 54.16563 7.47620 15488 ft 275 kts 14°
2026-04-29 11:24 54.18423 7.48217 15485 ft 270 kts 14°
2026-04-29 11:25 54.20268 7.48811 15482 ft 267 kts 14°
2026-04-29 11:25 54.22089 7.49380 15482 ft 265 kts 14°
2026-04-29 11:25 54.23898 7.49962 15483 ft 263 kts 14°
2026-04-29 11:25 54.25690 7.50533 15481 ft 261 kts 14°
2026-04-29 11:26 54.29226 7.51659 15483 ft 258 kts 14°
2026-04-29 11:26 54.30997 7.52228 15483 ft 258 kts 14°
2026-04-29 11:26 54.32754 7.52796 15485 ft 257 kts 14°
2026-04-29 11:27 54.34510 7.53350 15485 ft 256 kts 14°
2026-04-29 11:27 54.36268 7.53913 15484 ft 256 kts 14°
2026-04-29 11:27 54.38018 7.54463 15484 ft 255 kts 14°
2026-04-29 11:27 54.39763 7.55029 15485 ft 255 kts 15°
2026-04-29 11:28 54.41486 7.55594 15490 ft 255 kts 15°
2026-04-29 11:28 54.43230 7.56150 15490 ft 255 kts 14°
2026-04-29 11:28 54.44976 7.56701 15431 ft 256 kts 14°
2026-04-29 11:28 54.46761 7.57291 15138 ft 266 kts 14°
2026-04-29 11:29 54.48601 7.57883 14777 ft 272 kts 14°
2026-04-29 11:29 54.50485 7.58481 14406 ft 277 kts 14°
2026-04-29 11:29 54.52393 7.59112 14003 ft 280 kts 14°
2026-04-29 11:29 54.54318 7.59738 13621 ft 282 kts 13°
2026-04-29 11:30 54.56224 7.60331 13254 ft 282 kts 14°
2026-04-29 11:30 54.58158 7.60978 12883 ft 282 kts 14°
2026-04-29 11:30 54.60093 7.61607 12514 ft 283 kts 13°
2026-04-29 11:30 54.62032 7.62216 12144 ft 283 kts 13°
2026-04-29 11:31 54.63967 7.62858 11771 ft 282 kts 14°
2026-04-29 11:31 54.65710 7.64145 11401 ft 269 kts 36°
2026-04-29 11:31 54.67068 7.66312 11051 ft 262 kts 49°
2026-04-29 11:31 54.67950 7.69029 10707 ft 259 kts 68°
2026-04-29 11:32 54.68319 7.72032 10367 ft 259 kts 83°
2026-04-29 11:32 54.68163 7.75138 10007 ft 260 kts 95°
2026-04-29 11:32 54.67960 7.78213 9663 ft 256 kts 91°
2026-04-29 11:32 54.67814 7.81256 9324 ft 253 kts 92°
2026-04-29 11:33 54.67605 7.84282 8990 ft 252 kts 94°
2026-04-29 11:33 54.67402 7.87274 8660 ft 250 kts 93°
2026-04-29 11:33 54.67215 7.90266 8327 ft 249 kts 93°
2026-04-29 11:33 54.67020 7.93234 7998 ft 248 kts 94°
2026-04-29 11:34 54.66830 7.96202 7670 ft 247 kts 94°
2026-04-29 11:34 54.66633 7.99151 7339 ft 247 kts 95°
2026-04-29 11:34 54.66435 8.02090 7010 ft 246 kts 94°
2026-04-29 11:34 54.66256 8.05036 6671 ft 245 kts 95°
2026-04-29 11:35 54.66048 8.07903 6409 ft 242 kts 96°
2026-04-29 11:35 54.65853 8.10751 6256 ft 235 kts 95°
2026-04-29 11:35 54.65676 8.13552 5939 ft 236 kts 94°
2026-04-29 11:35 54.65491 8.16411 5483 ft 241 kts 94°
2026-04-29 11:36 54.65298 8.19290 5088 ft 242 kts 95°
2026-04-29 11:36 54.65098 8.22126 4792 ft 238 kts 95°
2026-04-29 11:36 54.64915 8.24931 4612 ft 231 kts 95°
2026-04-29 11:36 54.64735 8.27733 4026 ft 240 kts 92°
2026-04-29 11:37 54.65118 8.30471 3571 ft 235 kts 58°
2026-04-29 11:37 54.66250 8.32435 3249 ft 226 kts 40°
2026-04-29 11:37 54.67637 8.33578 3009 ft 217 kts 15°
2026-04-29 11:37 54.69084 8.33761 2995 ft 203 kts 357°
2026-04-29 11:38 54.70389 8.33095 2984 ft 194 kts 337°
2026-04-29 11:38 54.71451 8.31766 2986 ft 187 kts 317°
2026-04-29 11:38 54.72222 8.29880 2988 ft 198 kts 297°
2026-04-29 11:38 54.72754 8.27652 3005 ft 201 kts 294°
2026-04-29 11:39 54.73447 8.25560 3004 ft 202 kts 317°
2026-04-29 11:39 54.74642 8.24333 2991 ft 201 kts 340°
2026-04-29 11:39 54.75950 8.23446 3013 ft 202 kts 340°
2026-04-29 11:39 54.77257 8.22539 3010 ft 203 kts 340°
2026-04-29 11:40 54.78567 8.21592 3013 ft 206 kts 340°
2026-04-29 11:40 54.79898 8.20647 3016 ft 212 kts 340°
2026-04-29 11:40 54.81277 8.19667 3014 ft 216 kts 339°
2026-04-29 11:40 54.82677 8.18671 3016 ft 218 kts 340°
2026-04-29 11:41 54.84087 8.17662 3013 ft 220 kts 339°
2026-04-29 11:41 54.85506 8.16654 3025 ft 221 kts 339°
2026-04-29 11:41 54.86937 8.15642 3023 ft 222 kts 339°
2026-04-29 11:41 54.88370 8.14622 3023 ft 222 kts 339°
2026-04-29 11:42 54.89799 8.13603 3025 ft 222 kts 339°
2026-04-29 11:42 54.91220 8.12599 3025 ft 223 kts 339°
2026-04-29 11:42 54.92653 8.11565 3024 ft 223 kts 339°
2026-04-29 11:42 54.94093 8.10537 3023 ft 223 kts 339°
2026-04-29 11:43 54.95526 8.09517 3026 ft 222 kts 339°
2026-04-29 11:43 54.96969 8.08555 3021 ft 221 kts 347°
2026-04-29 11:43 54.98461 8.08824 3001 ft 218 kts 25°
2026-04-29 11:43 54.99645 8.10435 2895 ft 219 kts 53°
2026-04-29 11:44 55.00495 8.12605 2745 ft 214 kts 56°
2026-04-29 11:44 55.01352 8.14696 2574 ft 209 kts 54°
2026-04-29 11:44 55.02110 8.16754 2405 ft 198 kts 69°
2026-04-29 11:44 55.02182 8.19043 2240 ft 185 kts 100°
2026-04-29 11:45 55.01669 8.20988 2083 ft 173 kts 129°
2026-04-29 11:45 55.00772 8.22291 1943 ft 163 kts 144°
2026-04-29 11:45 54.99917 8.23349 1799 ft 140 kts 142°
2026-04-29 11:45 54.99148 8.24317 1686 ft 135 kts 143°
2026-04-29 11:46 54.98410 8.25234 1574 ft 129 kts 142°
2026-04-29 11:46 54.97691 8.26128 1479 ft 127 kts 142°
2026-04-29 11:46 54.96951 8.27041 1318 ft 133 kts 141°
2026-04-29 11:46 54.96189 8.28030 1138 ft 141 kts 142°
2026-04-29 11:47 54.95362 8.29014 931 ft 143 kts 145°
2026-04-29 11:47 54.94559 8.29999 742 ft 139 kts 143°
2026-04-29 11:47 54.93787 8.30990 540 ft 140 kts 144°
2026-04-29 11:47 54.92997 8.31980 333 ft 138 kts 142°
2026-04-29 11:48 54.92241 8.32940 122 ft 131 kts 141°
2026-04-29 11:48 54.91547 8.33789 30 ft 107 kts 144°
2026-04-29 11:48 54.91046 8.34395 31 ft 77 kts 145°
2026-04-29 11:48 54.90663 8.34874 30 ft 42 kts 144°
2026-04-29 11:49 54.90556 8.34873 30 ft 15 kts 223°
2026-04-29 11:49 54.90526 8.34824 29 ft 0 kts 223°
2026-04-29 11:50 54.90494 8.34776 29 ft 13 kts 222°
2026-04-29 11:50 54.90414 8.34644 29 ft 16 kts 222°
2026-04-29 11:51 54.90326 8.34500 29 ft 18 kts 226°
2026-04-29 11:51 54.90257 8.34309 28 ft 19 kts 250°
2026-04-29 11:51 54.90235 8.34091 27 ft 19 kts 268°
2026-04-29 11:51 54.90250 8.33860 27 ft 19 kts 279°
2026-04-29 11:52 54.90273 8.33644 27 ft 18 kts 288°
2026-04-29 11:52 54.90338 8.33453 27 ft 19 kts 310°
2026-04-29 11:52 54.90438 8.33313 28 ft 18 kts 331°
2026-04-29 11:52 54.90559 8.33248 28 ft 18 kts 354°
2026-04-29 11:53 54.90688 8.33233 29 ft 19 kts 355°
2026-04-29 11:53 54.90819 8.33207 29 ft 19 kts 348°
2026-04-29 11:53 54.90914 8.33139 29 ft 13 kts 333°
2026-04-29 11:53 54.90996 8.33033 27 ft 16 kts 315°
2026-04-29 11:54 54.91074 8.32878 24 ft 19 kts 312°
2026-04-29 11:54 54.91137 8.32753 22 ft 5 kts 313°
2026-04-29 11:54 54.91161 8.32708 22 ft 6 kts 312°
2026-04-29 11:54 54.91189 8.32645 22 ft 8 kts 316°
2026-04-29 11:55 54.91238 8.32582 22 ft 9 kts 327°
2026-04-29 11:55 54.91254 8.32528 21 ft 3 kts 253°
2026-04-29 11:55 54.91248 8.32510 21 ft 0 kts 243°